Regional Weather Roundup
Issued by NWS Nashville, TN

Home | Current Version | Previous Version | Text Only | Print | Product List | Glossary On
Versions: 1 2 3 4 5 6 7 8 9 10 11 12 13 14 15 16 17 18 19 20 21 22 23 24 25 26 27 28 29 30 31 32 33 34 35 36 37 38 39 40 41 42 43 44 45 46 47 48 49 50
000
ASUS44 KOHX 290210
RWROHX
MIDDLE TENNESSEE HOURLY WEATHER ROUNDUP
NATIONAL WEATHER SERVICE NASHVILLE TN
900 PM CDT TUE JUL 28 2015

NOTE: "FAIR" INDICATES FEW OR NO CLOUDS BELOW 12,000 FEET WITH
NO SIGNIFICANT WEATHER AND/OR OBSTRUCTIONS TO VISIBILITY.

* THESE REPORTS ARE NOT UNDER NWS QUALITY CONTROL AND MAY NOT
  REPORT WEATHER SUCH AS PRECIPITATION AND FOG.


TNZ005>011-023>034-057-059-062>066-078-080-290300
...NORTHERN MIDDLE TENNESSEE...

CITY           SKY/WX    TMP DP  RH WIND       PRES   REMARKS
CLARKSVILLE    CLOUDY    75  73  93 W12       30.01S
CROSSVILLE     MOCLDY    74  69  85 CALM      30.08R
DICKSON        CLOUDY    73  70  88 W10       30.03R
LIVINGSTON     MOCLDY    75  71  87 CALM      30.04
NASHVILLE      CLOUDY    78  75  90 W7        30.02R
ROCKWOOD       MOCLDY    75  68  79 N6        30.06R
SMYRNA         CLOUDY    77  76  96 CALM      30.01R
$$
TNZ056-058-060-061-075>077-079-093>097-290300
...SOUTHERN MIDDLE TENNESSEE...

CITY           SKY/WX    TMP DP  RH WIND       PRES   REMARKS
LEWISBURG      CLOUDY    77  74  90 CALM      30.00R
MCMINNVILLE    CLEAR     77  77 100 CALM      30.03R
SHELBYVILLE    CLEAR     75  75 100 CALM      30.03R
TULLAHOMA      CLEAR     75  72  88 CALM      30.04R
WINCHESTER     CLEAR     75  73  94 CALM      30.03R
$$


...KEY TO REMARKS...
VSB - VISIBILITY IN MILES
WCI - WIND CHILL INDEX
HX  - HEAT INDEX



USA.gov is the U.S. government's official web portal to all federal, state and local government web resources and services.